Regional Weather Roundup
Issued by NWS

Home | Current Version | Previous Version | Graphics & Text | Print | Product List | Glossary On
Versions: 1 2 3 4 5 6 7 8 9 10 11 12 13 14 15 16 17 18 19 20 21 22 23 24 25 26 27 28 29 30 31 32 33 34 35 36 37 38 39 40 41 42 43 44 45 46 47 48 49 50
000
ASUS45 KSLC 171210
RWRUT

UTAH REGIONAL WEATHER ROUNDUP
NATIONAL WEATHER SERVICE SALT LAKE CITY UT
600 AM MDT FRI APR 17 2015

UTZ001>011-023>025-171300-

NORTHERN UTAH

CITY           SKY/WX    TMP DP  RH WIND       PRES   REMARKS
BRIGHAM CITY   CLEAR     37  31  81 CALM      30.16S
HILL AFB       CLEAR     43  29  58 VRB3      30.12S
LOGAN          CLEAR     33  29  85 CALM      30.16S
OGDEN          CLEAR     44  29  55 VRB6      30.12S
PROVO AIRPORT  PTCLDY    34  28  80 SE3       30.12R
SALT LAKE CITY PTCLDY    40  30  67 W6        30.11F
VERNAL         CLOUDY    43  28  55 NE20G25   30.04F
WENDOVER       PTCLDY    43  23  45 CALM      30.16S
HEBER CITY     PTCLDY    32  27  80 CALM      30.12R
WEST JORDAN    PTCLDY    39  30  70 NW14      30.11F WCI  31

$$

UTZ012>022-026-027-171300-

SOUTHERN/CENTRAL UTAH

CITY           SKY/WX    TMP DP  RH WIND       PRES   REMARKS
BLANDING       CLOUDY    31  29  91 NW8       30.13  WCI  24
BRYCE CANYON   FOG       18  16  92 N8        30.06F VSB 1/4 WCI   8
CEDAR CITY     CLEAR     26  23  88 E6        30.10S WCI  19
DELTA          CLEAR     30  29  97 NE7       30.10S WCI  23
HANKSVILLE     CLOUDY    37  36  93 SE6       30.07R WCI  33
MILFORD        CLEAR     29  26  89 SW8       30.11R WCI  21
MOAB/CYNLANDS  CLOUDY    34  34 100 SE8       30.02S WCI  27
PRICE          PTCLDY    38  21  50 CALM      30.03S
ST GEORGE      MOSUNNY   43  27  52 SE8       30.12S
KANAB          CLOUDY   N/A N/A N/A CALM      30.15F VSB<1/4

$$

REGIONAL REPORTS     COLORADO/ARIZONA

CITY           SKY/WX    TMP DP  RH WIND       PRES   REMARKS
CRAIG, CO      CLOUDY    33  31  92 SW7       30.00F WCI  27
GRAND JUNCTION RAIN      34  34 100 SE13      30.01R FOG     WCI  25
RIFLE          LGT RAIN  38  35  89 S3        29.98R
MONTROSE       CLOUDY    33  30  88 E8        30.04S WCI  26
CORTEZ         PTCLDY    29  17  61 CALM      30.05S
PAGE, AZ       CLOUDY    41  32  70 SW5       30.05F
GRAND CANYON   MOCLDY    22  21  96 CALM      30.10F
KINGMAN        CLEAR     44  27  51 SE7       30.10R
FLAGSTAFF      CLEAR     21  21 100 CALM      30.08R

$$

REGIONAL REPORTS    NEVADA/IDAHO/WYOMING

CITY           SKY/WX    TMP DP  RH WIND       PRES   REMARKS
LAS VEGAS, NV  CLEAR     55  24  30 CALM      30.03S
ELY            CLEAR     20  12  71 S10       30.19S WCI   9
ELKO           PTCLDY    30  21  69 E3        30.21R
POCATELLO, ID  CLEAR     33  27  78 CALM      30.19S
BURLEY         CLEAR     32  23  69 SW6       30.17S WCI  26
EVANSTON, WY   CLOUDY    31  28  89 N7        30.16F WCI  24
ROCK SPRINGS   CLOUDY    33  27  78 NE21      30.14S WCI  21

$$


USA.gov is the U.S. government's official web portal to all federal, state and local government web resources and services.